Airfield :
LOGIN :

Register | Disclaimer

   EN    FR    IT 

 










Legend :    VFR   Marginal VFR   IFR   Intensive IFR   Very Intensive IFR
Visi :
Ceiling :
>= 8 km
>= 3000ft
5 to 8 km
1000 to 3000 ft
1500m to 5 km
500 to 1000 ft
800 to 1500m
200 to 500 ft
< 800m
< 200 ft
Symbols :   Thunderstorms  Fog  Heavy snow  Heavy precipitations  Wind > 20 kt
SIGMETs :     Misc.  Thunderstorms  Icing  Turbulence  Mountain Waves  Volcanic Ashes






- Airport Elevation : 302 ft


LFPM - Melun Villaroche

CURRENT METAR :
  • 230500Z AUTO 17004KT 9999 OVC007/// ///CB 14/14 Q1011

EXPIRED METARs :
  • 230430Z AUTO 13004KT 9999 BKN008/// BKN020/// OVC042/// ///TCU 14/14 Q1011
  • 230400Z AUTO 12004KT 9999 BKN009/// BKN036/// BKN052/// ///TCU 14/14 Q1011
  • 230330Z AUTO VRB03KT 8000 FEW036 BKN044 BKN060 13/13 Q1011
  • 230300Z AUTO 15002KT 9999 OVC043 14/14 Q1012
  • 230230Z AUTO 15002KT 9999 BKN041 BKN150 OVC170 14/13 Q1012

Expired Forecast.
ATIS : +33 1 64 14 28 44



MET'MAP, your aeronautical weather chart ! - Copyright ORBIFLY December 2007 - Disclaimer

ORBIFLY MET'MAP TEAM :

Programming & Development : Alexandra Zaïnal
Concept & original design : Baudouin d'Aumeries
Assistance for programming : Marc-Olivier Méhu
Technical & hardware support : Manuel Goepfert

Contact : metmap@orbifly.com




SOURCES & CREDITS :

   NOAA